Stündliche Wetter Cegielnia

Heute, 26 Oktober, Montag

Zeit Temperatur Niederschläge Wind Luftdruck Luftfeuchtigkeit
00:00 +10°C° 0 mm 3 m/S 735 mmHg 93%
01:00 +10°C° 0 mm 3 m/S 735 mmHg 94%
02:00 +10°C° 0 mm 2 m/S 735 mmHg 93%
03:00 +10°C° 0 mm 2 m/S 735 mmHg 93%
04:00 +10°C° 0 mm 2 m/S 734 mmHg 92%
05:00 +10°C° 0 mm 2 m/S 734 mmHg 92%
06:00 +10°C° 0 mm 2 m/S 734 mmHg 92%
07:00 +9°C° 0 mm 2 m/S 734 mmHg 92%
08:00 +12°C° 0 mm 2 m/S 734 mmHg 84%
09:00 +14°C° 0 mm 2 m/S 734 mmHg 76%
10:00 +16°C° 0 mm 3 m/S 734 mmHg 68%
11:00 +17°C° 0 mm 3 m/S 734 mmHg 64%
12:00 +17°C° 0 mm 3 m/S 734 mmHg 59%
13:00 +18°C° 0 mm 3 m/S 733 mmHg 55%
14:00 +18°C° 0 mm 3 m/S 733 mmHg 59%
15:00 +17°C° 0 mm 3 m/S 733 mmHg 62%
16:00 +16°C° 0 mm 2 m/S 733 mmHg 66%
17:00 +16°C° 0 mm 2 m/S 733 mmHg 68%
18:00 +15°C° 0 mm 2 m/S 733 mmHg 70%
19:00 +15°C° 0 mm 2 m/S 733 mmHg 72%
20:00 +15°C° 0 mm 2 m/S 733 mmHg 74%
21:00 +14°C° 0 mm 2 m/S 733 mmHg 75%
22:00 +14°C° 0 mm 2 m/S 734 mmHg 76%
23:00 +14°C° 0 mm 2 m/S 734 mmHg 78%

Morgen, 27 Oktober, Dienstag

Zeit Temperatur Niederschläge Wind Luftdruck Luftfeuchtigkeit
00:00 +14°C° 0 mm 2 m/S 734 mmHg 79%
01:00 +14°C° 0 mm 1 m/S 734 mmHg 80%
02:00 +14°C° 0 mm 2 m/S 734 mmHg 80%
03:00 +13°C° 0 mm 2 m/S 734 mmHg 81%
04:00 +13°C° 0 mm 2 m/S 734 mmHg 81%
05:00 +12°C° 0 mm 3 m/S 734 mmHg 81%
06:00 +12°C° 0 mm 3 m/S 734 mmHg 80%
07:00 +12°C° 0 mm 3 m/S 734 mmHg 80%
08:00 +14°C° 0 mm 4 m/S 735 mmHg 74%
09:00 +15°C° 0 mm 4 m/S 735 mmHg 67%
10:00 +16°C° 0 mm 5 m/S 735 mmHg 61%
11:00 +17°C° 0 mm 5 m/S 735 mmHg 58%
12:00 +19°C° 0 mm 5 m/S 735 mmHg 55%
13:00 +19°C° 0 mm 5 m/S 735 mmHg 51%
14:00 +19°C° 0 mm 4 m/S 735 mmHg 55%
15:00 +18°C° 0 mm 3 m/S 735 mmHg 58%
16:00 +17°C° 0 mm 2 m/S 735 mmHg 62%
17:00 +16°C° 0 mm 2 m/S 735 mmHg 65%
18:00 +16°C° 0 mm 2 m/S 736 mmHg 68%
19:00 +15°C° 0 mm 2 m/S 736 mmHg 72%
20:00 +14°C° 0 mm 2 m/S 736 mmHg 76%
21:00 +13°C° 0 mm 3 m/S 737 mmHg 80%
22:00 +12°C° 0 mm 3 m/S 737 mmHg 85%
23:00 +13°C° 0 mm 2 m/S 737 mmHg 88%

übermorgen, 28 Oktober, Mittwoch

Zeit Temperatur Niederschläge Wind Luftdruck Luftfeuchtigkeit
00:00 +12°C° 0 mm 2 m/S 737 mmHg 91%
01:00 +10°C° 0 mm 2 m/S 738 mmHg 94%
02:00 +11°C° 0 mm 1 m/S 738 mmHg 94%
03:00 +10°C° 0 mm 1 m/S 738 mmHg 94%
04:00 +9°C° 0 mm 0 m/S 738 mmHg 95%
05:00 +9°C° 0 mm 0 m/S 738 mmHg 94%
06:00 +10°C° 0 mm 1 m/S 738 mmHg 94%
07:00 +10°C° 0 mm 1 m/S 739 mmHg 93%
08:00 +11°C° 0 mm 1 m/S 739 mmHg 87%
09:00 +12°C° 0 mm 2 m/S 739 mmHg 81%
10:00 +13°C° 0 mm 2 m/S 739 mmHg 75%
11:00 +14°C° 0 mm 2 m/S 739 mmHg 73%
12:00 +13°C° 0 mm 3 m/S 738 mmHg 72%
13:00 +14°C° 0 mm 3 m/S 738 mmHg 71%
14:00 +14°C° 0 mm 3 m/S 738 mmHg 74%
15:00 +14°C° 0 mm 2 m/S 738 mmHg 77%
16:00 +14°C° 0 mm 2 m/S 738 mmHg 79%
17:00 +13°C° 0 mm 2 m/S 738 mmHg 81%
18:00 +13°C° 0 mm 2 m/S 738 mmHg 83%
19:00 +12°C° 0 mm 2 m/S 738 mmHg 85%
20:00 +11°C° 0 mm 3 m/S 739 mmHg 85%
21:00 +11°C° 0 mm 3 m/S 739 mmHg 85%
22:00 +11°C° 0 mm 3 m/S 739 mmHg 85%
23:00 +10°C° 0 mm 3 m/S 739 mmHg 84%

29 Oktober, Donnerstag

Zeit Temperatur Niederschläge Wind Luftdruck Luftfeuchtigkeit
00:00 +10°C° 0 mm 3 m/S 739 mmHg 82%
01:00 +10°C° 0 mm 3 m/S 739 mmHg 81%
02:00 +9°C° 0 mm 3 m/S 739 mmHg 80%
03:00 +9°C° 0 mm 3 m/S 739 mmHg 79%
04:00 +9°C° 0 mm 3 m/S 739 mmHg 78%
05:00 +9°C° 0 mm 3 m/S 739 mmHg 78%
06:00 +9°C° 0 mm 3 m/S 739 mmHg 78%
07:00 +9°C° 0 mm 3 m/S 740 mmHg 79%
08:00 +11°C° 0 mm 3 m/S 740 mmHg 73%
09:00 +12°C° 0 mm 4 m/S 740 mmHg 68%
10:00 +13°C° 0 mm 4 m/S 740 mmHg 62%
11:00 +14°C° 0 mm 4 m/S 740 mmHg 60%
12:00 +14°C° 0 mm 5 m/S 740 mmHg 58%
13:00 +15°C° 0 mm 5 m/S 740 mmHg 56%
14:00 +14°C° 0 mm 5 m/S 740 mmHg 59%
15:00 +13°C° 0 mm 4 m/S 741 mmHg 63%
16:00 +13°C° 0 mm 3 m/S 741 mmHg 66%
17:00 +12°C° 0 mm 3 m/S 741 mmHg 70%
18:00 +11°C° 0 mm 3 m/S 742 mmHg 73%
19:00 +11°C° 0 mm 3 m/S 742 mmHg 77%
20:00 +10°C° 0 mm 3 m/S 742 mmHg 78%
21:00 +10°C° 0 mm 3 m/S 743 mmHg 78%
22:00 +10°C° 0 mm 3 m/S 743 mmHg 79%
23:00 +9°C° 0 mm 3 m/S 743 mmHg 80%

30 Oktober, Freitag

Zeit Temperatur Niederschläge Wind Luftdruck Luftfeuchtigkeit
00:00 +9°C° 0 mm 3 m/S 743 mmHg 80%
01:00 +9°C° 0 mm 3 m/S 743 mmHg 80%
02:00 +8°C° 0 mm 4 m/S 743 mmHg 81%
03:00 +8°C° 0 mm 4 m/S 743 mmHg 82%
04:00 +8°C° 0 mm 4 m/S 743 mmHg 82%
05:00 +8°C° 0 mm 4 m/S 743 mmHg 81%
06:00 +8°C° 0 mm 5 m/S 743 mmHg 81%
07:00 +8°C° 0 mm 5 m/S 743 mmHg 80%
08:00 +9°C° 0 mm 5 m/S 743 mmHg 77%
09:00 +10°C° 0 mm 5 m/S 743 mmHg 74%
10:00 +12°C° 0 mm 5 m/S 744 mmHg 70%
11:00 +12°C° 0 mm 5 m/S 744 mmHg 70%
12:00 +13°C° 0 mm 5 m/S 744 mmHg 69%
13:00 +13°C° 0 mm 5 m/S 743 mmHg 68%
14:00 +13°C° 0 mm 5 m/S 743 mmHg 69%
15:00 +13°C° 0 mm 4 m/S 743 mmHg 70%
16:00 +12°C° 0 mm 4 m/S 743 mmHg 71%
17:00 +12°C° 0 mm 4 m/S 743 mmHg 70%
18:00 +12°C° 0 mm 5 m/S 744 mmHg 70%
19:00 +12°C° 0 mm 5 m/S 744 mmHg 69%
20:00 +12°C° 0 mm 5 m/S 744 mmHg 69%
21:00 +12°C° 0 mm 4 m/S 744 mmHg 70%
22:00 +11°C° 0 mm 4 m/S 744 mmHg 70%
23:00 +11°C° 0 mm 4 m/S 744 mmHg 71%

31 Oktober, Samstag

Zeit Temperatur Niederschläge Wind Luftdruck Luftfeuchtigkeit
00:00 +11°C° 0 mm 4 m/S 744 mmHg 72%
01:00 +11°C° 0 mm 4 m/S 744 mmHg 73%
02:00 +10°C° 0 mm 4 m/S 744 mmHg 74%
03:00 +10°C° 0 mm 4 m/S 744 mmHg 75%
04:00 +10°C° 0 mm 4 m/S 744 mmHg 75%
05:00 +10°C° 0 mm 3 m/S 744 mmHg 76%
06:00 +9°C° 0 mm 3 m/S 743 mmHg 77%
07:00 +9°C° 0 mm 3 m/S 743 mmHg 78%
Mehr zeigen